sat.trackr.live / text

‹ back to catalog

STARLINK-30583

NORAD 58086 · 2023-160M

PAYLOAD ACTIVE UNKNOWN

§ Identity

Operator
Country
US
Launch date
2023-10-18
Launch site
AFETR
Launch vehicle
Mass (kg)
RCS (m²)

Purposes: comms

External: N2YO · Heavens-Above · Gunter

§ Orbital elements

Epoch: 2026-09-20T17:33:43.257888Z

Period
94.27 min
Inclination
43.0001°
Eccentricity
0.0001199
Mean motion
15.27580217 rev/d
Perigee alt
482.2 km
Apogee alt
483.9 km
Semi-major
6,861.2 km
B*
7.6912e-5
RAAN
59.9105°
Arg perigee
268.0122°
Mean anomaly
92.0592°
Rev number
16,273

§ Raw data

STARLINK-305831 58086U 23160M   26263.73175067  .00001855  00000+0  76912-4 0  99912 58086  43.0001  59.9105 0001199 268.0122  92.0592 15.27580217162731

JSON: /api/v1/satellites/58086 · /tle

For live sub-satellite position, see the globe view (requires WebGL).

§ Visibility from observer

Set your observer location to see the next 7 days of passes ≥ 10°. The values pass through the URL so the page stays shareable.

No JS? Fill the form by hand. The geolocation button needs JavaScript.